Location: Miles
(41.4492°N, 81.6087°W)
Time: 22:58:28
(UTC+00:00)

Courier 1B Rocket - Pass Details

Date: 16 September 2024
Orbit: 920 x 1201 km, 28.2° (Epoch: 09 October)

Event Time Altitude Azimuth Distance (km) Brightness Sun altitude
Rises 20:22:20 0° 223° (SW) 3,615 9.0 33.5°
Reaches altitude 10° 20:25:41 10° 206° (SSW) 2,711 8.3 33.0°
Maximum altitude 20:30:09 19° 163° (SSE) 2,169 7.2 32.2°
Drops below altitude 10° 20:34:49 10° 120° (ESE) 2,849 7.3 31.5°
Sets 20:38:27 0° 104° (ESE) 3,862 7.7 30.9°
